Hourly Data Report for October 04, 2014

All times are specified in Local Standard Time (LST). Add 1 hour to adjust for Daylight Saving Time where and when it is observed.

TORONTO INTL A
ONTARIO

43°40'36.000" N
79°37'50.000" W
173.40 m
6158731
71624
YYZ

Download Data

Hourly Data (October 2014)
Hourly Data Report for October 4, 2014
Temp Definition
°C
Dew Point Temp Definition
°C
Rel Hum Definition
%
Wind Dir Definition
10's deg

Wind Spd Definition
km/h
Visibility Definition
km
Stn Press Definition
kPa
Hmdx Definition


Wind Chill Definition


Weather Definition


TIME
00:00 Legend Double Dagger 14.9 13.8 93 24 8 16.1 97.91     Rain Showers
01:00 Legend Double Dagger 14.4 13.3 93 25 14 16.1 97.92     Rain Showers
02:00 Legend Double Dagger 13.2 11.5 89 31 15 16.1 97.85     Rain Showers
03:00 Legend Double Dagger 12.9 11.5 91 23 9 24.1 97.82     Rain Showers
04:00 Legend Double Dagger 12.5 10.9 90 22 12 24.1 97.86     Mostly Cloudy
05:00 Legend Double Dagger 11.9 10.5 91 23 13 24.1 97.88     LegendNANA
06:00 Legend Double Dagger 11.8 10.6 92 23 22 19.3 97.92     Rain Showers
07:00 Legend Double Dagger 10.1 8.4 89 28 27 24.1 97.98     Rain Showers
08:00 Legend Double Dagger 10.5 7.4 81 25 26 24.1 98.03     LegendNANA
09:00 Legend Double Dagger 11.6 7.4 75 24 28 24.1 98.00     LegendNANA
10:00 Legend Double Dagger 11.2 6.0 70 26 23 24.1 98.01     Mostly Cloudy
11:00 Legend Double Dagger 12.6 4.9 59 26 30 24.1 98.02     LegendNANA
12:00 Legend Double Dagger 12.1 5.8 65 24 23 24.1 98.05     Rain Showers
13:00 Legend Double Dagger 12.4 3.9 56 26 35 24.1 98.07     Mostly Cloudy
14:00 Legend Double Dagger 11.8 4.8 62 26 26 24.1 98.07     LegendNANA
15:00 Legend Double Dagger 11.3 3.4 58 26 23 24.1 98.09     LegendNANA
16:00 Legend Double Dagger 11.3 1.0 49 23 25 24.1 98.10     Mostly Cloudy
17:00 Legend Double Dagger 10.4 1.8 55 25 22 24.1 98.18     LegendNANA
18:00 Legend Double Dagger 8.2 1.6 63 26 20 24.1 98.24     LegendNANA
19:00 Legend Double Dagger 7.4 1.5 66 23 18 24.1 98.28     Mainly Clear
20:00 Legend Double Dagger 7.0 2.3 72 26 37 24.1 98.34     LegendNANA
21:00 Legend Double Dagger 5.3 2.3 81 24 13 24.1 98.35     LegendNANA
22:00 Legend Double Dagger 5.6 2.3 79 20 14 24.1 98.36     Clear
23:00 Legend Double Dagger 5.2 1.9 79 22 15 24.1 98.31     LegendNANA

Notes on Data Quality.

Legend

  • E = Estimated
  • M = Missing
  • NA = Not Available
  • ‡ = Partner data that is not subject to review by the National Climate Archives
Date modified: